Temp_Advection
nan nan nan nan nan nan nan nan nan nan nan nan nan nan nan nan nan nan nan nan nan nan nan nan nan nan nan
nan 0 0 0 0 0 -0 -0 0 -0 -0 0 0 0 -0 -0 -0 -0 -0 0 0 1 0 -0 -0 -0 nan
nan 0 0 -0 -0 0 0 -0 0 0 0 0 0 0 -0 -0 -0 -0 0 -0 -0 -0 0 0 -0 -0 nan
nan 0 -0 0 0 0 -0 -0 0 0 0 0 0 0 -0 -0 -0 -0 0 0 -0 -0 -0 -0 -0 -0 nan
nan -0 0 0 0 -0 0 0 0 0 0 0 0 0 0 0 0 -0 -0 -0 -0 -0 -0 -0 -0 -0 nan
nan 0 0 -0 0 0 0 0 0 0 0 0 0 0 0 0 0 -0 -0 -0 -0 -0 -0 -0 -0 -0 nan
nan 0 0 0 0 0 -0 -0 0 0 0 0 0 0 0 0 0 0 -0 -0 -0 -0 -0 -0 -0 -0 nan
nan 0 0 0 0 0 -0 0 -0 0 0 0 0 0 0 0 0 0 0 -0 -0 -0 -0 -0 -0 -0 nan
nan 0 0 0 0 0 0 0 0 0 0 0 0 0 0 0 0 0 0 -0 -0 -0 -0 -0 -0 -0 nan
nan 0 0 0 0 0 -0 -0 0 0 0 -0 -0 -0 -0 0 0 0 0 -0 -0 -0 -0 -0 -0 -0 nan
nan 0 0 0 0 -0 -0 -0 -0 0 0 -0 -0 -0 0 0 0 0 0 -0 -0 -0 -0 -0 -0 -0 nan
nan 0 0 -0 0 -0 -0 -0 -0 -0 -0 -0 -0 -0 -0 0 0 0 0 -0 -0 -0 -0 -0 -0 -0 nan
nan 0 0 0 0 -0 -0 -0 -0 -0 -0 -0 -0 -0 0 0 -0 -0 -0 -0 -0 -0 0 -0 -0 -0 nan
nan 0 -0 0 -0 -0 -0 -0 0 -0 -0 -0 -0 -0 0 -0 -0 -0 -0 -0 -0 -0 -0 0 -0 -0 nan
nan -0 0 0 -0 -0 -0 -0 0 0 -0 -0 -0 -0 0 0 -0 -0 -0 -0 -0 -0 -1 -0 0 -0 nan
nan -0 0 0 -0 0 0 0 0 -0 -0 -0 -0 -0 -0 -0 -0 -0 -0 -0 0 -0 -0 -1 -0 -0 nan
nan nan nan nan nan nan nan nan nan nan nan nan nan nan nan nan nan nan nan nan nan nan nan nan nan nan nan
Wind_Speed
8 7 8 7 8 5 6 5 6 8 8 8 7 8 6 7 10 10 11 12 13 13 10 5 4 1 7
11 11 10 8 7 8 6 7 6 8 5 5 8 7 9 10 11 12 13 13 15 15 6 7 11 11 12
10 9 10 7 8 10 9 10 7 9 8 9 9 11 11 11 12 11 12 12 10 6 4 4 4 7 9
10 11 10 9 12 12 10 8 8 9 9 9 10 10 11 11 11 11 7 6 6 4 3 5 6 8 10
10 10 10 10 9 7 8 6 7 6 7 7 8 9 8 8 6 4 4 4 4 6 8 9 11 13 14
13 11 9 8 7 6 7 6 5 7 7 7 7 6 5 4 3 6 8 7 9 11 12 14 16 18 18
6 7 6 6 4 3 4 3 2 1 2 4 5 6 7 8 9 10 10 11 13 15 16 17 18 19 17
7 7 6 6 5 4 3 2 1 3 5 6 7 8 9 10 11 12 13 14 14 15 16 18 17 18 16
8 7 6 5 3 2 1 2 4 5 7 8 7 7 9 11 13 14 13 13 15 17 17 17 17 17 16
7 5 4 2 1 2 3 4 5 5 5 7 8 8 5 7 8 9 12 14 16 17 17 17 17 17 15
4 2 1 1 2 3 4 5 6 6 8 8 7 7 6 8 10 11 12 13 15 15 15 16 16 17 16
4 3 3 3 4 4 5 7 7 6 6 7 7 8 8 9 9 10 12 14 14 14 13 15 16 16 15
6 4 4 5 4 5 6 7 7 7 7 8 8 9 9 9 9 11 10 11 13 13 15 15 17 16 13
7 6 6 5 5 6 6 6 6 6 8 9 9 10 10 9 9 9 10 9 12 14 16 14 13 16 17
8 6 7 6 6 6 6 6 6 7 9 11 10 9 8 8 8 8 9 11 14 16 16 15 13 14 15
8 6 7 7 6 7 6 6 7 8 9 9 9 8 6 6 7 7 9 11 10 11 14 16 13 14 15
8 7 8 7 7 6 6 7 8 8 8 8 6 5 5 5 5 7 8 9 9 9 12 14 18 16 15
Wind_Direction
248 256 277 275 272 251 267 273 286 301 298 293 281 295 288 291 296 303 304 313 309 310 300 272 266 319 272
257 265 266 268 267 259 284 269 295 307 285 229 292 271 291 294 302 304 303 303 303 306 305 283 266 288 287
258 262 264 268 274 279 289 272 271 277 245 259 271 276 291 298 304 303 296 294 310 332 333 331 299 290 288
255 241 257 283 282 267 271 258 255 245 251 248 266 281 287 292 293 287 280 282 308 324 323 321 315 311 308
247 252 257 257 260 253 244 243 259 259 257 255 269 277 284 292 289 292 299 315 310 305 305 306 308 309 311
251 247 254 256 250 230 239 243 251 260 260 263 268 272 275 285 286 289 307 305 304 303 303 307 310 311 314
228 227 229 222 203 199 199 201 198 244 263 265 267 268 277 286 290 295 298 303 304 305 309 312 315 315 318
186 183 164 151 147 139 138 137 306 291 293 286 280 278 282 282 282 285 291 297 300 306 311 313 314 314 317
152 146 143 147 153 160 217 288 298 292 289 291 292 290 284 277 276 281 288 295 304 308 311 314 314 316 318
152 147 151 163 208 269 287 301 309 308 304 310 306 309 300 287 282 283 289 297 301 308 312 315 317 319 320
159 171 226 274 288 296 311 318 318 310 306 310 309 306 293 290 293 292 294 300 307 311 317 321 321 321 321
219 238 271 291 291 302 321 325 324 319 315 316 316 312 305 302 299 299 306 309 307 313 320 325 324 321 320
236 255 281 279 283 306 318 322 324 323 321 320 319 316 310 307 305 304 312 309 314 322 323 328 326 326 321
232 255 271 272 288 307 315 316 317 317 314 315 319 315 311 309 308 312 322 330 327 330 331 337 329 320 318
234 252 269 273 288 303 311 311 316 315 315 319 324 323 314 312 312 326 325 332 331 329 330 338 345 325 319
233 253 261 267 289 305 305 306 313 316 319 322 325 331 327 316 316 322 322 324 332 337 339 339 351 347 337
231 250 259 267 289 297 293 299 314 322 317 315 318 321 326 326 317 319 329 331 334 337 340 346 343 348 341
Height
1510 1511 1512 1511 1511 1511 1511 1511 1512 1512 1513 1511 1513 1512 1512 1513 1513 1512 1511 1509 1507 1506 1505 1504 1503 1502 1500
1508 1509 1509 1509 1509 1509 1509 1509 1509 1510 1510 1510 1509 1510 1511 1510 1509 1508 1508 1506 1504 1502 1501 1500 1500 1499 1498
1505 1506 1506 1506 1506 1506 1506 1507 1507 1508 1508 1508 1508 1508 1508 1508 1507 1506 1505 1503 1501 1501 1499 1499 1499 1498 1497
1502 1502 1503 1503 1503 1504 1503 1504 1504 1504 1505 1506 1506 1506 1506 1506 1505 1504 1502 1502 1501 1501 1500 1498 1497 1496 1495
1498 1499 1499 1500 1500 1500 1501 1501 1502 1502 1502 1504 1503 1504 1504 1504 1502 1502 1501 1501 1501 1499 1498 1496 1495 1494 1492
1495 1496 1496 1497 1497 1499 1499 1499 1500 1501 1501 1502 1502 1502 1502 1501 1501 1500 1499 1499 1498 1497 1495 1494 1492 1490 1488
1493 1495 1496 1496 1497 1497 1498 1498 1499 1500 1500 1500 1500 1500 1500 1499 1498 1498 1498 1496 1495 1494 1492 1490 1488 1486 1484
1492 1494 1494 1495 1496 1497 1498 1498 1499 1499 1499 1499 1499 1498 1498 1497 1497 1496 1495 1494 1493 1491 1488 1486 1485 1483 1481
1493 1493 1494 1495 1496 1497 1497 1498 1498 1498 1497 1497 1496 1495 1495 1495 1494 1493 1493 1491 1490 1488 1486 1484 1482 1480 1478
1493 1493 1494 1495 1495 1496 1496 1496 1496 1495 1495 1495 1493 1493 1492 1492 1491 1491 1490 1489 1487 1485 1483 1481 1479 1477 1476
1493 1493 1494 1494 1494 1494 1494 1494 1494 1493 1493 1492 1491 1491 1491 1491 1490 1489 1488 1486 1484 1482 1481 1479 1477 1475 1473
1492 1493 1493 1493 1493 1493 1493 1493 1492 1492 1491 1490 1490 1490 1489 1488 1488 1486 1485 1483 1482 1480 1479 1477 1475 1473 1471
1491 1491 1491 1492 1492 1492 1492 1491 1490 1490 1489 1488 1488 1487 1486 1485 1485 1483 1483 1482 1480 1478 1477 1475 1472 1471 1470
1489 1489 1490 1491 1491 1491 1490 1489 1489 1489 1488 1487 1486 1485 1484 1483 1482 1482 1481 1480 1479 1477 1475 1474 1472 1469 1467
1487 1488 1488 1489 1489 1489 1488 1488 1487 1487 1486 1485 1483 1483 1482 1481 1481 1481 1480 1479 1477 1475 1474 1472 1470 1467 1465
1485 1486 1486 1487 1487 1487 1486 1486 1486 1485 1484 1483 1482 1481 1481 1481 1480 1479 1479 1478 1477 1475 1473 1470 1468 1466 1463
1483 1484 1484 1485 1485 1485 1484 1484 1484 1483 1482 1481 1481 1481 1480 1480 1480 1479 1478 1477 1475 1474 1472 1469 1467 1465 1463